Temp
66 66 63 63 54 48 43 50 52 54 54 56 60 58 58 57 58 51 57 61 63 65 67 71 76 76 76 76 75 75 76 76 76 76 77 76 75 74 73 73 74 75 75 75 74 73 72 72 72
64 69 63 55 47 40 45 49 54 57 57 58 57 56 55 58 56 55 57 62 64 64 66 68 74 74 75 75 75 75 75 75 75 75 73 73 73 72 72 72 72 73 74 73 72 72 71 70 70
67 68 59 51 42 42 45 52 54 55 54 54 54 57 56 59 55 56 59 62 62 62 64 66 71 74 74 74 74 75 75 74 73 73 72 72 72 71 71 71 71 72 72 71 71 70 69 69 69
64 62 56 48 44 49 52 57 56 53 55 57 55 55 56 60 59 59 60 60 59 60 62 66 71 73 73 73 73 74 74 73 72 72 72 71 71 70 70 70 70 70 70 70 69 69 69 69 69
59 55 48 42 45 51 54 58 56 56 53 55 56 55 55 57 57 58 59 60 58 58 60 63 70 72 72 72 73 73 73 72 71 71 70 70 70 69 69 69 69 69 69 69 68 68 68 68 67
55 53 45 42 45 53 56 57 56 54 53 53 53 50 57 53 56 55 56 56 58 57 58 61 66 69 70 71 71 71 72 71 70 70 70 69 69 68 68 68 68 68 68 68 68 67 66 66 66
53 49 43 41 47 52 56 56 54 54 52 57 54 53 56 51 56 54 54 54 55 56 56 57 60 63 67 68 69 70 70 69 69 69 68 68 67 67 67 67 68 68 67 67 66 65 65 65 64
53 51 42 43 46 52 56 55 56 57 59 56 61 56 56 54 54 53 52 52 52 53 54 54 55 57 58 59 65 66 67 68 67 67 66 65 64 65 65 65 66 67 66 65 64 64 63 62 62
54 47 42 47 49 53 55 54 57 56 54 55 60 56 54 53 52 51 48 48 49 52 52 51 52 53 53 55 58 63 64 65 65 63 62 58 50 52 54 60 64 64 64 64 62 61 60 58 58
53 43 49 53 53 53 55 55 55 53 53 54 57 54 52 52 52 50 48 49 48 49 50 50 50 50 51 56 53 53 54 53 52 51 50 48 48 48 52 56 61 61 61 61 60 58 56 51 45
51 49 52 57 58 58 56 53 57 53 54 56 59 60 52 50 50 52 52 53 53 53 51 50 50 48 48 51 48 48 47 47 47 48 47 46 47 46 45 44 44 43 49 44 46 45 44 45 44
49 55 56 59 59 56 54 56 54 55 65 62 61 56 52 50 51 53 53 53 51 49 52 51 49 49 46 46 47 46 45 44 44 45 46 44 43 42 42 41 41 41 41 41 41 41 43 43 44
51 53 57 57 57 56 56 55 54 56 62 60 60 57 54 52 54 55 57 55 53 51 52 51 49 50 49 46 45 45 45 46 44 44 45 44 42 41 41 41 40 40 40 40 40 40 41 41 43
52 54 56 54 56 56 56 56 53 63 58 58 57 56 54 53 54 52 51 54 52 54 52 51 50 51 50 49 47 47 46 45 44 43 44 44 42 41 40 40 40 39 40 39 40 40 39 39 40
53 51 52 52 54 54 53 52 49 64 56 58 56 56 54 55 53 54 57 56 56 56 54 51 51 51 50 49 48 47 46 46 44 44 43 43 42 41 40 39 38 39 39 39 39 39 39 39 40
47 44 42 51 50 52 55 49 62 59 55 57 57 54 54 56 56 59 59 58 57 55 53 52 55 51 50 50 49 48 46 46 45 43 42 42 42 41 39 38 38 38 38 38 37 37 37 37 37
39 38 40 47 53 51 50 47 58 56 53 54 55 56 57 55 55 56 60 58 57 56 55 52 53 51 51 50 49 47 45 46 45 42 42 42 42 41 40 38 37 37 37 37 38 35 36 35 36
38 36 39 42 50 45 44 46 54 59 53 53 55 57 58 60 63 64 58 58 58 55 56 54 53 52 51 50 46 42 42 43 41 43 43 42 42 41 39 37 37 36 35 35 36 35 34 34 34
43 40 40 47 53 44 45 48 52 59 58 51 53 57 60 62 67 64 58 54 53 52 53 52 51 52 50 46 44 44 45 43 42 43 43 42 41 40 38 36 36 35 35 35 36 34 34 33 33
44 43 42 50 53 45 47 48 54 54 58 61 62 60 62 62 63 64 54 50 51 52 53 52 52 51 51 50 50 49 49 42 45 42 41 42 40 39 38 37 36 35 34 34 34 34 32 32 31
42 39 45 44 45 43 41 44 47 50 55 59 61 63 63 62 62 63 53 49 50 51 51 52 51 50 51 51 48 38 39 37 37 37 39 40 40 38 38 37 35 34 34 33 33 33 33 31 31
44 46 47 44 36 37 40 36 43 51 54 51 57 61 58 59 60 59 56 49 47 51 51 51 51 49 51 49 46 46 46 45 43 45 42 39 38 38 37 36 35 34 33 32 32 33 32 32 31
45 46 44 39 35 32 33 31 38 45 45 51 57 59 61 61 57 59 57 51 51 48 47 49 49 48 50 48 48 47 47 47 42 40 37 38 36 37 36 36 33 33 32 32 33 31 32 31 31
45 40 38 33 33 29 37 37 40 40 47 48 53 56 58 61 58 55 51 50 47 43 44 46 47 46 48 47 47 47 47 39 37 36 38 38 37 36 35 35 34 32 32 32 32 31 31 30 30
44 37 29 26 23 29 38 33 47 50 51 53 57 57 56 53 53 53 50 48 44 41 41 43 45 45 46 45 46 46 46 43 43 39 40 38 36 35 34 35 32 33 32 32 31 30 30 30 29
39 40 29 20 24 37 34 35 49 52 54 53 49 50 52 52 53 50 50 47 43 41 40 44 42 44 44 43 44 45 46 44 43 41 41 39 39 39 36 35 34 32 31 31 31 30 30 29 30
36 35 42 31 19 20 38 44 54 46 48 47 51 47 48 49 48 47 46 44 42 41 40 41 41 43 43 43 44 44 44 43 42 39 39 40 39 38 34 36 34 32 32 31 30 30 29 29 29
41 41 32 30 24 19 35 36 42 48 55 59 49 49 47 47 49 49 47 45 42 41 41 41 41 43 43 42 44 44 43 43 40 36 38 38 37 36 34 35 34 32 31 31 30 28 28 28 28
35 35 36 37 33 31 28 36 55 51 47 46 46 48 48 51 53 51 50 46 44 42 40 40 40 41 41 41 42 41 40 41 40 38 38 38 36 35 34 34 33 33 31 30 29 29 28 27 26
40 39 40 33 30 35 37 38 57 56 56 55 57 56 49 50 51 50 50 51 47 44 41 41 40 41 42 42 41 40 41 40 40 39 38 38 35 35 34 34 33 33 32 30 29 28 28 26 25
MSLP
1015.20 1015.22 1015.44 1015.88 1017.68 1018.35 1017.70 1016.29 1015.03 1014.36 1014.03 1013.70 1013.90 1014.33 1014.47 1014.63 1015.44 1016.40 1015.50 1015.38 1015.48 1015.57 1015.61 1015.68 1015.90 1016.18 1016.45 1016.78 1017.09 1017.27 1017.48 1017.62 1017.79 1018.03 1017.98 1018.25 1018.51 1018.74 1018.85 1018.91 1018.90 1018.89 1018.89 1018.90 1019.02 1019.18 1019.36 1019.36 1019.28
1015.29 1015.22 1015.82 1017.07 1018.29 1018.74 1017.46 1015.89 1014.83 1014.10 1013.74 1013.75 1013.87 1014.10 1014.43 1014.58 1014.93 1015.38 1015.61 1015.43 1015.43 1015.61 1015.84 1015.98 1016.09 1016.36 1016.55 1016.71 1016.93 1017.17 1017.44 1017.64 1017.85 1018.16 1018.45 1018.69 1018.85 1019.01 1019.17 1019.29 1019.30 1019.16 1019.12 1019.19 1019.41 1019.49 1019.64 1019.73 1019.60
1015.23 1015.58 1016.86 1017.83 1018.85 1018.51 1017.09 1015.34 1014.51 1014.06 1013.93 1013.90 1013.96 1014.05 1014.24 1014.27 1014.72 1014.97 1014.78 1015.16 1015.63 1015.87 1016.01 1016.29 1016.47 1016.52 1016.68 1016.91 1016.98 1017.28 1017.45 1017.81 1018.06 1018.44 1018.76 1018.85 1019.09 1019.26 1019.42 1019.46 1019.37 1019.34 1019.40 1019.59 1019.72 1019.79 1019.86 1019.89 1019.73
1015.71 1016.39 1017.86 1018.22 1018.43 1017.35 1016.15 1014.60 1014.26 1014.20 1014.08 1014.01 1013.98 1014.15 1014.10 1013.79 1014.12 1014.28 1014.50 1015.13 1015.79 1016.12 1016.28 1016.42 1016.56 1016.66 1016.87 1017.03 1017.24 1017.49 1017.70 1017.99 1018.21 1018.60 1018.86 1019.01 1019.28 1019.39 1019.49 1019.57 1019.54 1019.59 1019.71 1019.80 1019.83 1019.95 1019.92 1019.88 1019.93
1016.46 1017.41 1018.20 1018.42 1017.80 1016.38 1015.14 1014.27 1014.15 1014.28 1014.16 1013.99 1014.09 1014.05 1014.12 1013.88 1014.11 1014.44 1014.80 1015.27 1015.68 1016.28 1016.44 1016.51 1016.59 1016.73 1016.97 1017.15 1017.23 1017.51 1017.78 1018.06 1018.36 1018.64 1018.89 1019.07 1019.29 1019.46 1019.56 1019.63 1019.66 1019.83 1019.94 1020.01 1020.04 1020.16 1020.18 1020.12 1020.22
1017.42 1018.02 1018.56 1018.32 1017.14 1015.74 1014.62 1013.84 1014.19 1014.15 1014.13 1014.19 1014.36 1014.36 1014.11 1014.04 1014.44 1014.86 1015.13 1015.51 1015.75 1016.12 1016.38 1016.53 1016.58 1016.83 1017.05 1017.18 1017.47 1017.71 1017.88 1018.25 1018.57 1018.80 1018.99 1019.14 1019.36 1019.52 1019.65 1019.69 1019.86 1020.07 1020.04 1020.13 1020.30 1020.44 1020.52 1020.47 1020.50
1017.48 1018.41 1018.34 1017.68 1016.60 1015.42 1014.09 1013.66 1013.85 1013.85 1014.01 1014.00 1014.04 1014.46 1013.95 1014.29 1014.50 1014.96 1015.45 1015.98 1016.19 1016.39 1016.53 1016.64 1016.74 1016.94 1017.15 1017.32 1017.48 1017.61 1017.96 1018.21 1018.64 1018.90 1019.15 1019.36 1019.55 1019.67 1019.87 1020.05 1020.08 1020.15 1020.24 1020.43 1020.68 1020.77 1020.77 1020.75 1020.77
1017.48 1018.31 1018.21 1017.30 1016.20 1014.82 1013.82 1013.67 1013.24 1013.61 1013.46 1013.47 1013.64 1014.04 1014.03 1014.07 1014.83 1015.45 1015.83 1016.17 1016.51 1016.72 1016.82 1016.93 1017.02 1017.12 1017.31 1017.50 1017.64 1017.85 1018.18 1018.51 1018.82 1019.02 1019.33 1019.66 1019.99 1020.06 1020.26 1020.24 1020.32 1020.48 1020.66 1020.83 1021.04 1021.09 1021.11 1021.20 1021.28
1017.25 1018.05 1017.98 1016.80 1015.71 1014.21 1013.52 1013.57 1013.20 1013.13 1013.38 1013.50 1013.38 1013.35 1013.69 1014.26 1015.12 1016.06 1016.59 1016.85 1016.81 1016.68 1016.70 1016.85 1017.13 1017.38 1017.61 1017.78 1017.86 1018.06 1018.31 1018.59 1018.88 1019.25 1019.60 1020.00 1020.39 1020.60 1020.74 1020.57 1020.60 1020.77 1020.90 1021.03 1021.28 1021.43 1021.56 1021.63 1021.53
1017.22 1017.93 1016.90 1015.51 1014.55 1013.89 1013.46 1013.48 1013.30 1013.40 1013.38 1013.41 1013.32 1013.38 1014.05 1014.71 1015.16 1015.57 1015.98 1016.26 1016.59 1016.47 1016.42 1016.66 1016.92 1017.26 1017.66 1017.83 1018.07 1018.33 1018.59 1018.89 1019.21 1019.58 1020.01 1020.50 1020.77 1020.96 1020.98 1020.96 1020.96 1021.12 1021.17 1021.24 1021.39 1021.62 1021.86 1021.96 1021.95
1016.92 1016.82 1015.82 1014.69 1014.18 1013.81 1013.57 1013.42 1013.16 1013.31 1013.09 1012.84 1012.98 1012.89 1013.93 1014.62 1015.00 1015.08 1015.04 1015.08 1014.85 1015.67 1016.27 1016.37 1016.74 1017.10 1017.52 1017.81 1018.26 1018.57 1018.87 1019.19 1019.47 1019.74 1020.22 1020.64 1020.93 1021.10 1021.19 1021.35 1021.52 1021.58 1021.61 1021.71 1021.79 1021.99 1021.95 1022.11 1022.14
1016.58 1015.68 1015.37 1014.32 1013.95 1013.89 1013.76 1013.25 1013.18 1013.09 1011.24 1011.43 1011.75 1012.32 1013.32 1014.08 1014.34 1014.10 1014.22 1014.26 1014.50 1014.86 1015.27 1015.94 1016.40 1016.89 1017.33 1017.64 1018.05 1018.45 1018.88 1019.27 1019.59 1019.76 1020.01 1020.48 1020.85 1021.11 1021.24 1021.38 1021.55 1021.71 1021.86 1021.94 1022.15 1022.26 1022.27 1022.32 1022.22
1016.14 1015.44 1015.05 1014.31 1014.35 1014.14 1013.91 1013.30 1013.29 1012.27 1010.75 1011.24 1011.55 1012.21 1012.70 1013.11 1013.08 1013.04 1013.06 1013.37 1013.92 1014.29 1014.63 1015.06 1015.71 1016.15 1016.67 1017.29 1017.70 1018.08 1018.42 1018.77 1019.15 1019.55 1019.74 1020.13 1020.57 1020.98 1021.16 1021.45 1021.68 1021.88 1021.95 1021.99 1022.24 1022.25 1022.30 1022.31 1022.28
1015.58 1015.34 1014.89 1014.49 1014.32 1014.21 1014.14 1012.98 1013.21 1010.51 1010.49 1010.84 1011.28 1011.50 1011.91 1012.32 1012.10 1012.66 1012.68 1012.51 1012.87 1013.22 1013.57 1014.31 1014.87 1015.37 1016.01 1016.53 1016.98 1017.39 1017.98 1018.37 1018.84 1019.21 1019.44 1019.83 1020.19 1020.64 1021.13 1021.58 1021.91 1021.81 1021.81 1022.00 1022.14 1022.34 1022.41 1022.59 1022.58
1015.38 1015.57 1014.80 1013.95 1013.49 1013.90 1013.79 1013.10 1012.42 1009.85 1010.60 1010.57 1010.77 1010.88 1011.13 1011.01 1011.52 1011.13 1010.42 1011.06 1011.30 1011.59 1012.60 1013.10 1013.79 1014.55 1015.21 1015.81 1016.42 1016.88 1017.35 1017.95 1018.37 1018.63 1019.01 1019.46 1019.89 1020.47 1020.92 1021.43 1021.77 1021.67 1021.68 1021.93 1022.07 1022.23 1022.51 1022.61 1022.54
1015.94 1015.94 1015.41 1013.42 1013.62 1013.39 1013.60 1012.31 1009.92 1009.83 1010.53 1010.41 1010.18 1010.26 1010.32 1009.75 1009.63 1009.37 1009.70 1009.90 1010.45 1011.22 1011.46 1012.16 1012.82 1013.58 1014.33 1014.93 1015.56 1016.25 1016.84 1017.25 1017.73 1018.28 1018.67 1019.05 1019.48 1020.04 1020.58 1021.06 1021.42 1021.44 1021.82 1021.86 1022.05 1022.35 1022.69 1022.78 1022.73
1016.59 1016.17 1015.58 1014.01 1013.02 1013.45 1013.59 1012.34 1009.86 1009.76 1010.34 1010.33 1009.96 1009.55 1009.21 1008.68 1008.29 1007.97 1008.00 1008.38 1009.04 1009.52 1010.42 1011.12 1011.71 1012.24 1012.99 1014.05 1014.84 1015.58 1016.22 1016.74 1017.18 1017.80 1018.29 1018.72 1019.10 1019.60 1020.07 1020.62 1021.06 1021.37 1021.58 1021.76 1021.96 1022.47 1022.69 1022.86 1022.72
1016.06 1016.32 1015.42 1014.64 1012.83 1013.25 1013.18 1011.85 1010.47 1009.33 1009.92 1009.93 1009.53 1008.78 1008.21 1007.65 1006.11 1006.00 1006.22 1006.66 1007.44 1008.32 1009.17 1010.07 1010.90 1011.51 1012.40 1013.45 1014.49 1015.39 1016.01 1016.48 1016.91 1017.28 1017.69 1018.14 1018.65 1019.19 1019.86 1020.41 1020.79 1021.12 1021.57 1021.94 1022.10 1022.29 1022.67 1022.73 1022.68
1015.79 1015.78 1015.33 1013.83 1013.13 1013.42 1012.59 1011.69 1010.92 1009.76 1009.24 1008.83 1008.26 1007.64 1006.72 1006.07 1004.10 1004.78 1004.96 1005.49 1006.58 1007.36 1008.25 1008.89 1009.71 1010.45 1011.66 1012.68 1013.65 1014.72 1014.88 1015.63 1016.21 1016.54 1017.02 1017.65 1018.19 1018.79 1019.49 1020.12 1020.62 1020.97 1021.34 1021.58 1021.97 1022.38 1022.61 1022.88 1022.69
1015.46 1015.20 1014.83 1013.24 1012.94 1013.30 1012.20 1010.47 1010.03 1009.71 1008.15 1006.75 1006.29 1005.75 1004.90 1004.56 1004.01 1003.73 1004.50 1005.10 1005.46 1005.89 1006.57 1007.64 1008.32 1009.32 1010.21 1011.18 1011.91 1012.92 1013.89 1014.82 1015.44 1016.13 1016.60 1017.00 1017.65 1018.27 1018.88 1019.48 1020.17 1020.61 1021.13 1021.50 1021.66 1021.80 1022.55 1022.98 1022.92
1014.80 1015.29 1014.06 1013.82 1013.41 1012.83 1011.65 1008.91 1008.63 1007.37 1006.81 1005.53 1004.42 1004.07 1003.94 1003.51 1003.54 1003.33 1004.17 1004.55 1004.90 1005.27 1005.65 1006.17 1007.03 1008.13 1009.15 1010.24 1011.65 1012.80 1013.89 1014.90 1015.60 1015.93 1016.31 1016.72 1017.24 1017.97 1018.51 1019.25 1019.83 1020.38 1020.75 1021.00 1021.08 1021.42 1021.83 1022.71 1023.12
1013.91 1013.77 1013.91 1013.96 1014.61 1013.70 1012.29 1006.80 1007.59 1006.44 1005.64 1004.83 1003.64 1003.11 1003.22 1002.88 1002.60 1002.67 1002.95 1003.64 1004.24 1004.09 1004.83 1005.74 1006.25 1006.80 1007.86 1008.92 1010.23 1011.16 1011.82 1013.03 1013.53 1014.42 1015.47 1016.12 1016.74 1017.44 1018.10 1018.77 1019.43 1019.96 1020.37 1020.61 1020.76 1021.10 1021.37 1021.82 1022.76
1013.19 1013.09 1013.69 1014.06 1014.36 1013.75 1012.82 1011.97 1005.57 1005.00 1005.34 1004.22 1002.96 1002.38 1002.11 1001.84 1002.27 1002.42 1002.48 1003.01 1002.77 1003.31 1004.00 1004.25 1005.70 1006.92 1007.18 1007.90 1008.46 1009.29 1010.06 1011.16 1012.02 1013.26 1014.49 1015.40 1016.21 1016.77 1017.46 1018.10 1018.95 1019.78 1020.37 1020.63 1020.84 1021.09 1021.38 1021.64 1022.11
1013.42 1013.71 1013.95 1014.86 1014.73 1012.95 1011.65 1010.96 1003.66 1004.90 1004.11 1003.78 1003.18 1002.62 1002.31 1001.86 1001.73 1001.99 1002.40 1002.80 1003.04 1003.49 1003.87 1004.61 1004.62 1005.58 1006.57 1007.53 1008.32 1008.77 1009.43 1010.11 1011.09 1012.50 1013.82 1014.79 1015.52 1016.11 1016.58 1017.16 1017.92 1018.71 1019.57 1020.25 1020.62 1021.00 1021.34 1021.63 1021.88
1012.84 1014.78 1015.23 1015.22 1015.02 1011.39 1009.38 1008.88 1004.06 1003.90 1003.33 1002.78 1002.76 1002.50 1002.67 1002.90 1002.89 1002.70 1002.87 1003.19 1003.17 1003.50 1003.47 1004.37 1005.14 1005.44 1005.47 1006.34 1006.99 1007.77 1008.68 1009.43 1009.74 1010.50 1011.61 1013.02 1014.53 1015.25 1015.66 1016.48 1017.34 1017.95 1018.50 1019.21 1019.75 1020.28 1020.85 1021.35 1021.69
1012.32 1013.41 1014.99 1014.25 1013.39 1010.87 1009.77 1005.67 1002.41 1002.33 1002.00 1001.86 1002.32 1002.87 1003.24 1003.26 1002.99 1003.12 1002.97 1002.70 1003.73 1004.31 1004.57 1004.20 1004.38 1005.16 1005.94 1006.05 1006.32 1007.05 1008.23 1009.06 1009.74 1010.11 1010.75 1011.54 1012.31 1013.44 1014.89 1015.55 1016.30 1016.99 1017.72 1018.59 1019.34 1019.88 1020.20 1020.62 1021.14
1012.50 1012.64 1012.13 1012.98 1012.48 1012.02 1007.79 1004.54 1002.24 1001.86 1001.90 1002.08 1002.32 1002.58 1003.01 1003.22 1003.66 1003.24 1002.97 1003.19 1003.25 1003.98 1004.92 1005.73 1005.65 1005.35 1005.16 1005.91 1006.75 1006.49 1006.58 1007.83 1008.96 1009.77 1010.18 1010.68 1011.41 1012.20 1013.45 1014.50 1015.36 1016.30 1017.04 1017.75 1018.54 1019.22 1019.77 1020.19 1020.54
1011.57 1011.87 1012.66 1012.95 1012.47 1010.85 1007.51 1005.53 1002.18 1002.24 1002.11 1002.18 1002.43 1002.77 1003.13 1002.92 1003.44 1002.80 1002.79 1003.39 1003.83 1003.96 1003.81 1004.53 1004.77 1005.06 1005.62 1005.61 1005.75 1006.31 1006.59 1006.78 1007.90 1008.94 1009.52 1009.98 1010.94 1011.62 1012.57 1013.81 1014.48 1015.35 1016.18 1016.94 1017.94 1018.68 1019.28 1019.86 1020.21
1012.07 1011.52 1011.60 1011.84 1011.26 1009.73 1007.78 1004.57 1000.79 1001.65 1001.89 1001.89 1002.51 1002.74 1003.20 1002.91 1002.66 1003.06 1003.19 1003.46 1003.34 1003.34 1003.74 1003.60 1003.80 1004.26 1004.86 1004.91 1005.13 1005.82 1005.90 1006.32 1006.80 1007.66 1008.27 1008.96 1009.80 1010.62 1011.30 1012.48 1013.67 1014.31 1015.23 1016.11 1017.08 1017.71 1018.47 1019.24 1019.91
1010.85 1010.93 1010.86 1010.77 1009.25 1008.13 1006.36 1003.48 1001.46 1001.30 1001.96 1001.77 1001.54 1002.49 1002.84 1003.08 1003.20 1002.87 1003.00 1003.00 1003.16 1003.07 1003.29 1003.53 1003.25 1003.47 1003.44 1004.21 1004.49 1004.52 1005.16 1005.66 1006.27 1006.57 1007.07 1007.70 1008.45 1009.58 1010.22 1011.27 1012.54 1013.30 1014.02 1015.08 1016.08 1017.01 1017.63 1018.39 1019.21
Wind_Speed
3 3 2 5 5 5 4 7 3 3 2 2 4 5 9 4 7 7 3 5 6 9 6 8 12 12 13 14 15 15 13 12 12 10 8 9 9 8 8 8 7 6 5 8 11 10 9 7 8
2 1 5 3 5 2 6 5 6 5 1 5 3 2 1 6 1 1 4 7 8 8 5 7 15 11 15 16 16 14 14 14 13 11 10 8 9 9 8 9 8 7 7 9 9 9 8 8 9
1 4 4 5 3 5 5 5 5 2 2 1 1 3 3 4 2 5 6 11 8 7 6 6 10 13 12 11 11 11 11 12 14 12 10 10 10 9 8 8 8 9 10 9 9 8 8 8 9
3 5 5 4 6 8 8 7 5 2 1 4 1 5 3 3 5 7 9 10 9 7 6 9 12 15 13 12 12 13 12 11 12 12 12 12 12 11 10 9 9 10 9 9 9 9 9 10 10
5 3 2 1 6 7 6 5 7 6 2 3 4 4 4 3 1 7 12 11 11 7 6 6 11 15 14 13 15 15 15 14 15 15 14 14 13 12 12 11 11 10 10 10 10 9 10 11 12
4 3 3 4 6 6 7 4 7 4 2 2 2 1 6 1 6 7 8 8 7 9 7 6 8 10 12 14 15 15 16 15 15 14 14 14 13 13 12 12 12 11 11 11 11 11 10 11 11
6 4 4 4 5 6 5 7 4 5 2 7 2 4 4 3 7 8 8 6 6 6 6 6 6 8 10 11 13 14 17 16 15 15 14 14 13 13 12 11 12 11 11 11 11 11 11 11 12
5 4 2 5 3 6 3 3 0 6 8 1 7 6 7 3 8 7 6 7 6 6 5 6 5 5 5 5 10 11 14 14 15 15 14 12 11 11 12 8 12 12 11 11 11 11 11 11 11
4 3 3 6 5 5 1 3 2 1 2 3 7 4 1 6 10 7 4 3 4 6 7 7 7 6 5 4 5 8 11 12 13 11 12 9 4 6 6 7 12 12 12 11 11 11 11 10 10
5 4 8 6 4 4 3 4 4 2 4 5 6 2 4 7 9 11 10 12 10 10 9 8 7 7 6 4 5 5 4 3 4 5 6 4 5 5 5 7 11 12 11 11 11 10 9 7 4
5 7 6 7 7 4 4 3 5 4 9 9 11 10 7 9 10 13 14 13 19 11 7 10 9 7 7 5 4 3 2 3 3 6 6 5 4 3 3 3 3 3 7 3 5 4 4 4 3
3 9 6 6 4 3 4 3 5 9 22 6 14 2 8 11 15 17 16 16 13 13 14 11 10 9 7 5 5 5 4 4 4 5 7 5 3 4 4 3 4 3 3 5 3 3 3 4 4
5 5 6 7 6 7 5 12 7 12 19 9 9 7 10 12 17 15 15 11 9 13 14 14 13 12 11 8 5 6 6 6 5 5 6 5 5 5 4 4 3 3 3 4 3 3 4 5 5
2 5 8 5 6 6 5 11 5 18 6 10 8 12 11 12 18 9 10 15 14 14 16 14 16 14 12 11 11 9 7 6 6 5 6 7 5 5 4 4 4 3 3 3 3 3 3 3 3
4 8 9 7 7 10 7 13 12 25 5 11 10 10 10 16 10 20 22 20 18 16 13 18 17 15 15 15 11 9 8 7 7 7 7 7 6 6 6 5 4 4 4 5 4 3 3 3 3
4 1 6 1 7 3 9 17 19 13 7 13 13 10 11 13 18 21 16 17 14 13 17 16 15 18 17 15 11 9 8 8 7 6 5 8 7 7 6 5 5 4 4 4 4 3 2 2 3
3 6 9 15 13 6 9 11 15 5 7 12 11 11 12 12 12 15 18 17 16 18 16 17 18 20 20 15 11 9 9 8 7 5 6 8 8 8 7 5 5 5 4 3 3 2 2 2 3
9 6 6 8 4 5 6 16 15 15 8 13 14 15 16 18 25 17 14 17 16 16 16 16 15 17 17 11 7 5 6 6 5 8 8 9 8 8 7 5 6 5 4 4 3 3 1 2 1
4 6 8 11 10 3 11 15 17 20 15 14 16 20 21 22 26 14 12 11 12 12 15 18 19 18 15 11 11 9 13 9 8 8 10 11 9 9 8 5 6 5 5 5 5 3 3 3 3
11 16 15 18 17 5 17 24 20 13 21 25 23 22 24 20 20 19 8 9 15 18 19 18 19 18 17 13 12 6 10 5 7 6 8 10 10 10 9 9 7 7 5 6 5 4 3 2 3
9 8 17 16 7 6 10 20 16 14 19 24 24 22 21 21 20 20 9 11 10 14 17 19 20 19 17 15 9 4 6 4 3 5 6 8 10 9 9 8 7 7 5 5 5 5 6 4 1
19 13 14 13 3 12 3 19 7 11 16 11 19 17 15 18 15 17 12 9 11 15 12 13 17 19 18 19 16 17 12 11 8 9 8 8 10 10 9 8 7 7 5 6 5 5 4 5 4
12 5 7 4 5 5 5 7 1 5 7 15 17 17 16 16 13 16 12 9 14 10 13 15 15 15 17 18 18 16 15 10 5 6 11 11 9 10 10 10 8 7 4 5 6 6 5 3 4
1 2 2 4 3 12 14 11 4 6 9 5 7 11 12 16 11 9 6 6 7 6 8 11 17 17 17 18 17 20 19 11 9 10 10 9 8 8 10 11 10 8 7 7 5 5 6 5 4
6 3 5 5 1 13 6 8 13 7 8 9 11 12 10 9 9 12 9 8 6 8 10 10 13 15 16 19 19 18 17 15 18 15 13 14 10 9 12 12 10 9 9 8 8 7 6 6 5
9 13 8 9 8 18 5 16 14 9 10 7 4 5 8 10 10 10 10 6 5 5 6 11 14 13 14 15 17 15 15 10 10 12 10 11 12 12 12 13 12 10 11 9 8 6 5 6 5
4 7 5 1 2 1 11 20 19 6 7 1 6 4 6 7 9 11 9 5 3 5 4 5 7 9 14 14 12 15 14 13 12 9 9 10 10 10 14 15 14 12 12 11 10 7 8 7 6
7 3 2 2 3 10 16 10 21 15 19 19 6 6 7 6 9 9 8 8 4 5 8 9 9 13 10 11 13 12 13 14 11 9 13 13 10 12 14 15 14 14 13 12 11 7 7 8 6
1 4 5 1 5 15 19 17 25 18 10 6 7 8 8 9 9 8 8 6 7 8 8 8 9 10 10 13 13 13 13 14 13 13 14 14 13 14 16 16 15 16 15 13 13 11 11 10 8
4 7 7 10 10 11 19 20 28 28 20 16 23 14 6 6 7 7 6 7 8 8 7 9 8 11 14 13 12 15 14 13 15 15 16 15 16 15 16 16 16 16 16 15 15 14 12 12 11
Wind_Direction
15 351 74 40 47 60 267 263 247 258 239 186 137 148 191 172 168 209 334 189 142 150 172 152 171 150 162 169 166 155 148 147 139 128 136 126 116 112 108 104 100 97 87 66 66 64 50 43 38
13 71 42 78 85 34 272 256 240 222 241 115 116 74 251 234 180 233 128 195 162 151 150 166 173 166 158 155 152 151 151 143 136 120 108 112 106 99 107 107 102 105 97 81 72 61 52 40 35
42 42 82 94 117 195 228 238 246 269 160 204 195 206 190 235 197 198 223 154 149 151 152 163 178 176 159 153 148 157 134 129 121 121 134 125 126 120 111 104 95 97 90 85 82 73 62 49 40
63 12 34 96 231 250 214 253 210 190 272 236 206 255 286 215 170 193 150 145 142 152 154 172 182 181 171 162 150 152 165 144 134 143 147 141 138 131 126 119 112 103 95 88 76 66 61 57 54
35 58 65 271 254 264 252 245 169 183 221 231 171 259 249 223 1 137 148 149 151 155 161 168 182 184 181 173 176 175 174 161 159 157 153 148 146 140 133 125 117 109 103 92 85 79 73 69 57
40 93 60 245 247 259 275 181 154 202 220 284 215 170 250 351 148 171 147 150 151 155 163 169 172 169 178 176 173 176 170 164 163 159 157 150 148 143 136 131 124 117 107 100 93 85 76 68 60
118 93 223 250 260 289 249 138 188 190 211 245 181 191 265 264 204 145 139 129 141 154 158 165 163 169 176 173 172 173 167 165 165 163 159 153 147 142 133 130 121 112 106 103 95 89 80 72 63
103 93 269 253 251 272 312 206 2 162 247 87 172 234 262 256 140 110 117 142 155 169 174 173 169 163 166 168 170 172 166 168 168 162 154 144 145 139 133 125 121 117 113 104 95 87 81 77 70
124 63 249 251 187 251 180 228 200 148 241 233 212 201 299 116 116 106 118 174 184 200 191 179 175 172 165 166 172 165 164 166 162 152 146 124 113 119 118 138 124 120 114 105 94 85 79 72 64
117 147 229 218 226 246 263 193 259 310 244 253 285 231 90 136 161 169 181 195 208 206 202 186 177 175 167 163 160 148 151 145 138 132 126 131 139 145 135 119 123 117 112 110 101 91 79 70 56
179 213 218 254 233 252 254 247 217 207 263 207 214 234 172 179 192 196 203 200 207 200 196 194 184 174 170 172 160 154 146 148 153 157 156 158 151 132 122 108 106 110 108 84 83 82 77 70 57
213 244 218 259 221 258 242 276 243 199 249 197 227 197 170 192 202 205 209 209 195 191 197 186 184 180 183 165 173 167 164 169 176 180 168 154 153 154 147 147 148 136 140 121 115 94 87 62 58
231 255 248 254 271 261 305 252 242 257 255 246 243 210 210 209 216 219 222 221 202 204 195 194 182 186 185 179 173 175 183 182 183 179 175 163 163 170 159 163 159 151 147 127 116 89 60 43 27
268 267 272 279 233 248 231 274 139 263 249 245 241 238 227 218 221 223 219 220 205 203 201 188 192 190 181 189 185 187 183 185 180 180 183 177 165 163 164 157 177 151 138 121 116 109 82 53 17
297 313 306 214 224 229 168 290 225 252 201 265 252 252 241 232 206 221 222 220 210 210 194 193 190 186 187 191 188 185 185 182 188 188 180 174 168 168 160 163 176 175 149 135 113 89 75 48 5
338 310 322 293 132 236 154 263 259 251 221 261 271 264 251 251 224 233 230 223 209 200 197 189 190 189 190 191 186 186 183 183 188 182 174 175 172 170 164 167 185 167 155 141 114 97 78 51 24
300 239 224 299 190 151 184 252 269 249 195 267 267 269 265 264 251 235 226 217 205 201 197 193 191 190 191 187 181 182 180 187 186 171 178 183 177 173 167 171 176 167 147 131 139 94 129 58 353
216 221 246 236 287 172 218 246 272 283 198 245 264 267 264 267 261 243 219 213 202 197 196 195 193 192 187 175 165 160 170 185 174 187 189 179 181 172 168 168 167 159 146 152 152 135 101 128 341
192 226 234 255 263 224 234 250 254 268 277 255 261 264 263 262 266 256 221 199 190 186 188 191 186 189 175 176 175 187 196 191 192 192 184 181 179 174 170 168 165 165 168 171 162 144 121 34 6
234 254 260 270 265 205 268 264 265 254 259 261 259 258 260 260 271 267 229 189 187 192 196 193 193 184 187 185 190 188 185 192 196 184 185 184 178 175 173 173 178 172 159 169 170 149 121 90 15
222 225 253 264 307 237 280 273 248 250 248 263 264 254 268 260 266 272 239 213 197 201 192 193 189 185 186 181 159 85 83 65 125 188 191 192 180 176 174 175 171 173 169 178 170 162 150 142 359
264 219 254 263 347 276 3 297 258 237 248 229 261 268 250 267 256 254 243 212 208 215 195 191 187 180 182 173 173 180 189 188 194 193 192 181 178 179 175 173 172 179 179 175 170 170 157 134 156
252 179 220 199 198 314 178 260 189 166 246 251 252 259 262 250 252 265 261 218 216 190 189 178 177 184 182 183 184 184 190 190 158 164 164 177 181 181 177 173 168 172 182 179 173 159 158 159 146
51 45 71 56 120 262 196 205 21 166 217 273 277 264 259 271 282 271 294 257 237 182 167 180 173 178 180 183 190 196 195 168 155 162 175 186 187 184 182 175 174 168 168 176 177 164 168 174 170
128 69 309 319 6 253 177 214 245 263 225 211 246 269 317 318 303 305 293 257 230 195 166 172 181 187 182 184 190 193 196 190 188 176 179 174 180 192 190 176 175 180 174 173 168 168 175 177 178
185 165 176 227 259 281 124 259 274 228 235 255 351 275 311 318 331 297 271 283 266 217 199 179 180 185 191 191 194 191 199 196 199 188 182 185 188 189 177 182 181 172 170 170 172 179 174 166 172
179 178 197 297 16 344 260 276 287 260 296 349 303 347 310 320 318 315 321 300 261 191 190 221 198 198 195 198 203 202 191 195 198 190 182 184 180 173 171 181 179 178 176 173 173 179 180 172 170
174 183 59 354 206 256 275 272 262 284 287 284 254 277 293 312 303 337 335 303 278 224 178 194 196 211 205 199 204 206 202 192 186 173 189 187 179 169 169 181 183 179 178 173 174 174 172 174 183
162 229 199 200 196 247 260 265 268 272 265 242 269 275 299 305 327 327 323 303 240 211 216 210 201 204 211 203 199 203 198 198 187 190 191 190 173 176 176 181 183 182 179 176 178 180 173 179 174
168 229 208 230 251 236 253 251 281 280 285 265 276 291 274 275 283 308 285 275 266 247 228 226 213 214 215 213 202 207 204 198 201 202 198 186 183 181 179 176 184 185 182 178 182 182 179 179 179